Regional Weather Roundup
Issued by NWS

Home | Current Version | Previous Version | Graphics & Text | Print | Product List | Glossary On
Versions: 1 2 3 4 5 6 7 8 9 10 11 12 13 14 15 16 17 18 19 20 21 22 23 24 25 26 27 28 29 30 31 32 33 34 35 36 37 38 39 40 41 42 43 44 45 46 47 48 49 50
000
ASUS43 KBIS 250910
RWRND

NORTH DAKOTA REGIONAL WEATHER ROUNDUP
NATIONAL WEATHER SERVICE BISMARCK ND
400 AM CDT TUE JUL 25 2017

NOTE: "FAIR" INDICATES FEW OR NO CLOUDS BELOW 12,000 FEET WITH NO
SIGNIFICANT WEATHER AND/OR OBSTRUCTIONS TO VISIBILITY.


NDZ001>003-009>011-017-251000-
NORTHWEST NORTH DAKOTA

CITY           SKY/WX    TMP DP  RH WIND       PRES   REMARKS
WILLISTON      CLOUDY    65  50  58 E3        29.93R
MINOT          PTCLDY    64  54  69 NW12      29.86R
MINOT AFB      PTCLDY    63  53  72 NW7       29.86R
$$

NDZ018>021-031>035-040>046-251000-
SOUTHWEST NORTH DAKOTA

CITY           SKY/WX    TMP DP  RH WIND       PRES   REMARKS
BISMARCK       PTCLDY    66  64  93 CALM      29.84S
DICKINSON      CLOUDY    68  53  58 N8        29.88S
GARRISON         N/A     61  56  83 N7        29.86R
HETTINGER ARPT CLOUDY    68  64  87 CALM      29.90S
$$

NDZ004>008-012>016-024-026-027-054-251000-
NORTHEAST NORTH DAKOTA

CITY           SKY/WX    TMP DP  RH WIND       PRES   REMARKS
GRAND FORKS    CLOUDY    68  65  90 S12       29.84F
GRND FRKS AFB  CLOUDY    67  64  91 S8        29.85S
DEVILS LAKE    CLOUDY    68  65  90 S6        29.86F
$$

NDZ022-023-025-028>030-036>039-047>053-251000-
SOUTHEAST NORTH DAKOTA

CITY           SKY/WX    TMP DP  RH WIND       PRES   REMARKS
FARGO          CLEAR     69  64  84 S14       29.86S
JAMESTOWN      CLOUDY    67  65  93 S5        29.84S
$$





USA.gov is the U.S. government's official web portal to all federal, state and local government web resources and services.